Vorticity
7 7 7 7 7 7 7 7 6 6 5 5 5 4 5 5 5 5 4 5 5 6 6 8 9 9 8 6 5 3 4 5 6 6 6 8 8 12 13 7 5 4 3 4 4 4 5 6 6 6 4 5 5 4 2 2 2 0 14 26 17 11 6 3 4 -1 2 9 8 10 8 7 8 4 6 7 5 4 5 7 5 7 8 5 4 3 4 3
7 7 7 8 8 8 8 8 8 8 7 6 5 5 5 5 7 7 7 7 5 5 5 6 8 8 9 8 6 4 3 4 5 5 7 9 8 11 12 7 6 5 3 4 4 4 4 5 7 6 6 7 6 5 3 2 1 0 19 27 6 -2 5 9 4 -1 2 5 6 11 8 7 8 5 7 7 5 6 5 4 6 7 7 9 6 1 3 4
7 7 7 8 8 8 8 9 10 10 10 10 9 9 8 7 7 8 9 9 8 7 5 6 6 7 9 9 8 6 5 3 3 5 8 10 8 9 10 7 7 6 2 4 4 4 3 4 8 9 8 8 6 6 2 1 -0 0 21 23 2 3 13 11 9 4 1 4 8 10 8 8 8 5 7 7 6 5 4 5 7 7 7 11 7 2 5 4
6 6 7 6 6 7 7 8 9 10 10 10 11 11 10 9 8 8 8 9 10 9 8 6 6 7 8 9 9 7 7 4 3 5 7 10 8 8 8 7 8 7 4 4 4 3 3 4 9 9 7 8 6 4 2 3 1 1 20 20 4 13 14 4 4 0 -1 4 7 9 9 10 7 4 9 8 3 3 4 6 7 8 8 9 6 3 4 4
5 6 6 5 6 6 6 6 7 8 9 8 9 9 10 10 9 10 9 9 10 10 10 8 6 7 7 9 9 9 7 4 8 7 5 8 8 6 6 8 9 8 5 4 4 3 2 4 9 7 6 7 4 5 4 3 2 1 20 23 9 13 7 -2 1 -1 -1 1 4 9 9 10 8 7 10 4 2 4 6 6 4 5 7 7 5 5 4 4
4 5 5 6 6 6 6 6 6 8 8 8 7 7 8 9 10 10 10 10 10 10 11 10 9 7 7 9 7 9 6 3 10 10 6 7 7 7 6 8 10 9 6 3 4 4 3 5 6 6 7 6 3 7 2 -0 7 2 12 18 8 11 4 -5 3 3 1 -2 1 8 8 11 10 11 9 1 5 8 6 8 5 2 5 7 7 6 6 3
4 4 5 6 6 6 7 7 8 8 8 8 8 8 9 10 11 11 12 12 12 12 12 11 11 9 8 9 8 9 7 3 7 7 7 7 6 7 7 9 11 10 6 3 5 4 3 5 6 5 6 5 3 7 1 0 9 -0 9 21 10 11 7 2 8 4 3 -0 -1 5 6 9 10 11 9 2 7 10 9 9 5 3 3 8 10 7 5 4
4 5 6 6 6 7 7 8 8 8 8 8 8 8 9 11 13 13 13 13 14 14 14 14 12 11 10 9 11 9 5 7 9 6 6 6 5 7 7 9 11 10 7 3 4 4 2 3 7 5 2 4 3 6 4 1 6 -0 9 20 6 9 15 9 1 -2 4 2 -2 2 4 6 8 9 9 6 8 10 12 10 5 4 3 6 10 9 6 5
5 6 6 7 7 7 8 8 8 8 7 7 8 10 11 13 13 13 14 14 15 15 16 16 13 13 12 11 13 8 3 9 11 6 7 6 4 6 7 8 9 10 8 3 3 5 2 1 6 5 1 4 4 6 6 1 5 3 7 19 9 7 16 5 -7 1 10 3 -2 1 2 5 10 9 6 7 9 9 11 10 6 4 4 6 8 9 7 3
6 6 7 7 7 7 8 8 8 8 8 9 10 12 13 13 14 14 16 16 17 18 18 18 16 15 14 14 13 6 5 11 9 7 10 7 5 7 7 7 8 10 9 4 3 4 2 1 5 5 2 4 4 5 6 1 5 4 3 17 16 5 11 7 2 15 13 1 1 3 2 4 9 11 8 8 8 6 8 8 7 6 5 5 7 8 5 3
7 6 7 7 8 8 8 8 8 8 8 10 12 13 14 14 15 16 17 18 18 19 19 19 19 17 15 16 13 7 10 13 9 9 10 8 8 7 6 7 7 9 11 6 3 3 3 2 3 5 4 3 4 5 6 2 1 6 5 10 14 8 10 14 12 14 7 -3 1 3 2 3 6 9 9 10 8 5 7 8 8 8 6 4 7 9 5 5
7 7 7 8 9 8 8 8 8 9 10 12 13 14 15 15 16 17 16 17 17 17 18 19 20 20 19 17 15 12 13 12 9 10 9 8 9 7 6 7 6 8 11 8 4 2 4 3 1 3 5 4 4 6 8 5 -2 3 6 1 10 15 12 16 14 8 3 -1 2 4 2 1 4 10 11 11 9 6 4 8 10 8 7 6 7 9 7 6
7 7 7 8 10 8 8 8 9 11 13 14 15 15 16 17 16 15 14 13 14 13 14 15 17 20 22 20 19 17 14 10 10 11 9 7 8 8 7 6 6 7 9 10 6 3 5 4 2 1 3 5 5 7 7 5 1 1 4 -2 5 16 13 16 16 8 5 0 -2 1 4 3 1 8 14 11 7 6 3 6 10 8 7 7 6 7 9 8
7 8 8 9 9 8 8 9 11 13 14 15 16 16 15 14 13 11 11 10 10 10 10 11 11 15 20 23 23 20 16 13 12 12 10 7 8 8 7 6 7 6 8 11 7 5 5 3 4 1 2 4 4 9 5 4 7 1 1 2 4 12 13 17 18 13 12 9 1 -1 3 5 2 6 14 13 7 5 4 6 7 7 7 7 7 7 8 9
8 8 8 8 8 8 9 11 13 14 15 16 15 14 13 13 13 13 13 13 11 11 11 10 8 9 13 20 24 23 19 14 12 13 11 7 8 8 7 6 7 5 7 10 9 8 6 3 5 1 3 4 3 9 3 4 10 0 -1 3 5 11 12 17 19 14 13 7 -2 -4 2 5 -0 4 11 12 9 7 5 6 6 6 6 6 7 8 10 10
9 8 8 8 7 9 11 13 14 15 16 15 14 14 14 14 15 17 19 18 16 14 13 13 10 7 8 14 22 26 22 16 13 14 13 8 8 9 7 7 6 6 6 7 10 10 6 4 3 2 3 2 5 6 1 4 5 1 6 1 2 15 14 13 16 17 17 5 -4 1 8 7 -1 1 10 12 9 8 7 5 6 6 5 7 7 7 10 10
8 8 8 7 8 11 13 15 14 15 15 14 14 13 15 16 15 17 17 18 19 17 16 15 13 9 7 9 16 24 24 19 14 14 15 10 8 8 7 7 6 7 7 6 9 9 8 6 3 3 2 2 6 5 2 6 1 3 11 -2 -1 16 14 13 12 11 21 13 3 5 1 -1 2 1 6 13 10 6 9 7 4 6 5 6 7 7 8 10
8 8 7 7 10 13 15 15 14 15 15 14 15 14 15 14 11 11 10 14 17 17 17 15 14 10 5 6 14 23 25 21 16 15 16 12 9 8 8 7 7 7 6 6 6 7 10 8 5 3 -0 2 6 7 7 5 3 5 8 -3 -1 14 10 13 15 6 16 17 2 2 1 -3 4 6 2 10 12 5 8 8 4 5 6 7 6 6 8 10
8 8 8 9 12 15 16 15 14 14 15 16 15 13 13 11 9 9 9 12 14 15 16 15 15 10 5 9 17 23 23 20 16 16 18 15 10 9 9 7 7 8 7 6 5 6 10 8 7 4 1 2 -1 9 10 2 5 3 6 8 -3 6 12 12 17 10 9 15 7 1 5 3 1 3 3 6 10 9 7 8 8 6 6 7 5 5 9 9
8 8 8 11 14 16 16 14 13 14 16 16 13 10 11 10 12 15 17 17 14 14 15 15 15 11 8 10 14 20 21 19 17 16 18 17 11 9 9 7 8 9 7 7 4 5 9 8 8 4 3 4 -3 7 7 3 9 -11 0 29 5 -1 15 9 13 18 13 15 12 1 8 23 15 2 3 5 9 10 8 8 7 7 6 6 5 5 7 7
8 8 10 13 15 16 16 13 11 14 16 13 10 10 11 13 17 20 22 22 16 13 13 15 15 12 11 11 12 17 19 19 16 17 18 17 14 10 10 9 8 9 7 7 5 5 9 6 10 8 2 1 -0 8 4 5 14 -17 -14 22 5 -4 14 10 6 14 19 17 12 1 2 20 18 4 -1 1 10 10 7 10 6 7 7 5 6 6 6 7
7 9 12 14 16 17 15 11 11 14 14 11 10 11 13 15 19 20 23 24 19 14 14 15 15 12 12 13 12 14 18 18 16 19 20 18 16 11 10 10 8 9 8 8 6 5 9 6 9 9 2 -0 2 10 2 -0 15 2 -5 7 2 5 13 10 5 3 6 10 22 20 -3 -8 -2 4 -0 -6 8 12 5 9 7 8 8 4 8 7 6 7
8 11 13 14 16 16 14 11 11 13 11 10 11 12 15 18 21 23 25 24 18 16 15 14 16 14 14 15 14 13 16 18 15 18 20 18 18 12 9 10 8 9 7 8 8 5 8 8 9 8 5 4 2 6 2 -2 8 8 3 1 1 11 9 5 8 6 1 6 37 43 7 -6 -3 2 3 -3 5 11 7 9 7 9 8 4 7 7 6 8
9 12 14 15 15 15 13 11 11 12 10 11 13 16 18 20 26 25 23 21 17 18 17 15 17 15 14 16 15 14 16 19 16 16 18 17 19 16 10 10 8 9 9 7 7 7 7 7 9 10 9 8 1 1 1 1 6 4 -0 0 4 9 3 3 9 8 5 12 44 49 13 8 17 8 2 0 4 8 8 8 6 8 8 4 6 7 7 7
10 14 15 14 14 14 13 12 11 11 10 12 15 17 20 24 29 25 23 22 16 16 19 18 19 19 18 16 15 14 14 18 17 15 17 14 16 17 12 12 8 8 11 8 7 7 8 9 8 9 9 7 4 2 2 3 5 3 -2 -2 8 12 3 6 12 5 1 7 27 38 17 6 16 17 6 -2 1 7 8 8 7 8 8 7 5 5 8 7
11 16 16 13 13 14 14 13 11 11 11 12 15 19 23 29 28 19 18 17 6 11 21 19 18 19 20 18 18 17 14 19 19 17 18 14 15 14 9 11 8 9 10 8 11 5 4 12 8 7 8 5 8 7 3 5 1 4 10 8 7 8 5 9 12 5 3 4 5 14 20 8 -4 2 8 -1 -3 5 8 10 9 5 6 8 7 6 7 8
13 17 15 12 12 14 15 12 10 11 10 12 17 20 26 30 25 15 14 13 4 8 18 19 16 14 16 17 18 16 13 19 21 18 18 15 16 14 11 10 5 11 10 5 15 4 1 18 11 5 9 6 7 8 11 8 -6 1 14 15 8 -1 3 11 10 7 7 10 8 3 23 41 16 -4 4 3 -1 2 3 8 10 6 7 6 6 8 7 7
14 17 15 11 12 14 15 11 11 11 8 12 19 23 25 23 16 9 7 5 3 8 15 18 16 12 14 17 17 11 7 15 18 18 19 14 16 14 13 13 5 10 12 6 15 7 1 18 18 6 5 11 5 -1 21 17 -7 7 10 1 9 -1 -2 13 12 9 2 -0 5 -3 11 48 39 7 4 7 2 -2 -2 7 11 6 8 9 6 7 6 6
15 17 14 10 11 15 14 12 12 9 8 14 19 21 20 11 5 8 9 3 3 11 15 18 18 15 16 17 19 14 9 13 14 16 20 14 15 11 4 13 10 7 13 5 2 10 8 7 20 14 -2 15 9 -14 15 16 -10 14 14 -6 5 -3 -8 12 15 11 8 5 11 8 2 21 35 19 8 11 7 -2 -3 3 9 8 7 8 8 8 5 5
16 17 13 10 11 15 15 13 10 7 9 14 15 14 10 4 2 8 11 6 10 15 13 16 16 15 20 19 19 18 7 8 12 15 20 12 13 14 5 13 13 4 16 5 -18 9 28 5 9 15 -3 8 9 -8 15 13 -13 3 6 -6 3 -3 -9 6 11 5 6 9 13 17 6 11 47 42 7 4 9 4 2 -1 2 9 9 8 8 7 6 4
17 16 13 9 11 16 16 12 10 7 9 13 14 8 3 6 7 9 13 9 9 12 12 18 15 12 18 14 17 21 5 5 14 16 21 17 12 15 10 15 16 3 14 12 -17 -0 28 11 3 10 3 4 -1 -1 20 14 -3 1 -0 -4 1 2 -1 -0 9 6 0 4 -0 4 6 6 41 50 14 2 5 1 1 -1 1 8 8 9 9 6 6 5
16 16 13 8 11 18 16 12 9 7 10 13 12 7 5 9 6 7 18 15 6 6 9 15 15 16 15 6 14 22 7 8 14 11 20 21 13 15 9 10 20 12 10 14 1 -0 13 12 10 6 6 10 -6 -7 14 13 6 6 3 3 -1 4 5 -5 4 8 -0 1 -8 -6 12 7 11 29 25 19 18 16 13 5 2 6 6 6 7 7 6 6
16 15 13 7 11 18 15 11 9 7 10 10 7 7 8 11 6 1 10 13 10 11 11 8 13 21 15 5 14 18 11 16 18 14 19 18 15 21 13 4 13 14 11 16 12 12 21 20 16 8 3 11 4 -1 11 13 12 9 2 4 2 5 8 -3 -1 8 7 10 3 -5 3 2 -2 7 14 13 13 21 28 19 5 0 5 7 6 8 6 5
16 15 12 8 12 17 15 11 9 8 9 6 4 5 4 9 12 7 6 10 15 18 18 12 10 16 12 6 6 3 7 20 22 14 15 17 14 19 25 16 3 -6 4 27 23 12 22 22 19 16 6 8 9 4 8 7 13 21 8 -0 3 3 7 6 1 4 7 10 10 5 -1 -1 6 11 12 12 5 6 26 35 15 -2 2 7 6 6 6 6
16 15 11 8 11 16 16 12 8 9 8 6 7 9 7 6 8 11 9 9 12 12 15 18 10 2 5 10 4 -3 4 21 24 10 9 20 7 0 23 29 13 -7 -11 16 24 10 15 21 28 31 14 8 11 8 6 -4 2 24 17 2 5 3 1 7 7 5 8 7 6 16 21 11 4 2 5 16 10 6 38 55 23 -1 2 5 7 6 4 6
15 16 11 9 10 14 17 12 9 9 5 3 8 8 7 5 5 11 10 6 9 9 7 15 16 6 4 10 14 15 15 19 24 12 7 19 8 -0 17 24 26 12 -14 -6 15 19 16 9 25 41 22 7 7 9 13 -1 -4 15 16 3 5 6 -0 -0 7 5 7 12 3 1 10 6 3 -1 -5 9 10 7 46 66 25 -2 1 1 6 9 4 5
15 15 11 9 10 14 18 13 9 10 4 4 11 8 6 8 7 9 11 7 9 13 5 2 14 16 7 6 16 22 16 13 21 14 7 13 12 9 7 9 26 17 -12 -15 -0 22 25 1 11 34 24 15 8 3 11 7 0 6 11 12 7 5 3 -6 -1 3 -0 8 5 -5 -2 1 11 14 -0 6 13 2 21 44 23 2 4 4 4 7 7 5
14 16 12 9 10 14 17 13 10 10 4 3 10 9 6 11 10 8 13 9 3 9 9 4 14 16 7 7 14 17 14 15 19 12 7 6 4 7 -1 4 35 33 2 -22 -26 15 34 4 11 32 19 18 15 4 9 9 6 -0 0 17 15 6 9 -1 -4 4 1 6 9 6 7 -2 -1 16 13 8 15 7 -1 12 22 19 17 16 9 4 7 9
13 15 13 10 9 13 17 15 10 7 5 5 8 10 7 8 13 12 13 12 8 7 8 13 19 13 7 8 10 15 16 14 17 14 9 2 0 11 5 1 31 44 21 -17 -35 3 19 -14 9 52 38 18 11 8 9 6 10 4 -7 8 15 6 9 8 6 5 -2 2 10 9 16 9 -5 6 17 9 11 14 -1 -2 15 23 26 26 19 10 5 6
13 16 15 12 10 12 17 16 9 5 8 10 7 7 5 3 12 16 12 14 13 5 2 13 19 12 9 8 5 13 13 8 19 19 7 2 4 17 14 0 15 31 25 4 -23 -16 -3 -24 -5 48 52 23 9 11 11 4 10 12 -3 -1 11 9 5 4 8 7 -3 -0 8 4 10 17 6 1 8 7 9 13 4 1 8 15 23 26 26 26 14 4
13 15 13 12 10 12 17 15 9 5 8 12 10 7 5 1 5 12 16 17 11 4 6 15 16 9 8 7 7 13 10 8 18 13 6 13 14 19 26 16 15 19 18 20 9 -0 2 -17 -25 14 42 29 15 14 10 4 8 16 9 -2 1 10 13 8 6 8 2 0 9 8 4 10 11 11 13 8 10 12 3 -1 3 8 15 15 21 36 29 10
13 13 10 11 10 12 16 12 10 10 6 7 12 10 7 6 4 8 18 19 11 11 14 10 6 5 8 10 10 12 9 6 10 7 8 15 7 9 29 26 16 20 11 5 21 30 20 -6 -25 -9 21 32 30 22 12 6 3 9 16 9 -3 -2 8 14 10 8 5 1 6 11 8 8 12 15 14 6 9 17 13 3 -3 0 9 10 12 26 36 27
12 14 14 13 10 12 16 11 12 17 8 4 10 8 7 8 6 7 14 14 10 12 17 13 4 2 9 12 6 8 11 3 5 9 6 9 8 5 20 25 17 23 12 -9 7 27 21 12 -4 -15 2 28 36 28 18 12 7 4 9 12 5 -4 -0 10 11 7 8 6 5 8 6 3 6 9 11 8 4 6 10 9 0 -6 0 11 13 11 25 40
14 16 14 14 12 12 14 8 7 12 11 9 10 6 8 8 3 4 11 16 16 10 11 17 8 -2 8 13 2 4 12 5 4 9 3 8 18 10 12 22 18 19 14 -2 7 20 18 18 2 -17 -4 17 23 26 23 14 7 3 5 9 6 -1 -3 7 17 14 8 4 2 5 9 7 9 13 12 11 10 7 9 12 9 2 -4 1 11 7 10 34
15 16 13 13 13 12 12 11 6 7 15 18 11 5 9 10 5 5 9 19 25 14 7 16 13 1 6 12 4 -0 6 6 6 9 5 6 13 10 8 15 17 20 18 8 9 16 17 16 3 -13 -9 -3 2 17 32 36 25 9 7 10 6 2 -5 -4 14 21 12 9 5 0 4 9 11 14 12 8 8 11 16 14 10 11 6 -0 3 2 2 23
14 15 14 13 14 12 13 16 10 5 11 16 10 6 8 9 7 5 6 17 26 17 8 13 12 6 8 12 10 5 2 3 7 12 11 6 11 16 13 11 14 20 20 14 10 12 12 14 12 0 -13 -13 -8 -5 7 34 43 24 12 10 5 7 5 -6 1 13 9 5 6 3 2 2 2 6 9 8 3 1 11 17 11 10 13 11 9 1 -1 11
15 14 13 11 14 13 11 16 15 8 10 13 12 10 5 4 6 7 6 14 22 18 10 10 10 8 11 12 12 15 10 1 3 11 10 7 13 18 13 11 14 17 22 20 14 14 11 9 18 14 -3 -5 1 -4 -8 10 33 35 23 14 5 2 5 -4 -12 5 19 12 5 8 7 2 4 8 9 9 6 -0 2 9 11 13 14 13 13 8 4 5
15 13 13 11 11 10 9 13 15 13 12 8 8 11 8 3 6 8 6 9 18 19 11 10 12 8 6 6 5 13 17 8 3 6 5 3 6 10 12 14 13 11 16 22 23 23 11 4 17 22 14 13 5 -3 1 1 9 27 25 21 23 16 15 9 -18 -17 14 22 12 13 13 4 0 4 7 9 11 8 5 4 6 11 14 13 11 8 9 12
15 14 17 14 9 8 9 10 9 11 15 10 5 10 10 4 4 6 6 6 12 17 12 10 14 10 6 6 3 4 11 13 10 7 7 6 2 5 11 13 14 11 4 9 24 27 10 2 10 3 7 30 17 -10 4 12 2 9 14 14 22 21 24 31 10 -13 -7 7 11 12 11 8 3 6 13 13 13 11 4 3 6 6 8 12 13 9 7 12
18 17 16 13 10 10 11 12 10 11 17 16 11 12 10 4 3 5 6 6 7 11 11 12 17 15 10 8 6 4 6 9 11 8 8 7 4 8 9 6 14 19 9 8 19 22 11 7 12 -4 -12 23 32 -5 -5 19 12 2 4 2 3 5 5 15 21 11 -1 1 7 6 8 12 8 14 25 18 11 10 1 -3 3 5 4 6 10 11 10 10
22 18 14 10 11 12 11 13 14 14 16 16 13 13 11 7 5 4 5 7 6 6 7 11 17 18 14 10 7 8 10 12 14 12 8 4 4 9 9 7 13 15 14 19 18 17 15 7 13 12 -14 -1 33 18 -4 9 13 6 9 8 7 9 4 0 7 7 1 3 5 1 8 13 -6 -10 13 21 13 10 5 -2 -3 -0 2 3 2 5 7 8
22 18 12 9 10 13 11 11 15 13 12 12 11 9 9 8 7 5 5 7 7 6 6 7 13 16 17 16 12 9 12 15 16 13 9 6 7 10 8 8 11 8 11 21 19 18 21 6 6 20 3 -7 23 32 15 13 14 12 12 10 10 14 12 11 13 9 2 4 6 0 0 6 -2 -13 -4 12 15 9 5 4 0 -3 -0 1 0 2 2 4
Height
5883 5882 5882 5881 5880 5879 5879 5878 5878 5877 5876 5876 5875 5875 5875 5874 5874 5874 5874 5873 5873 5873 5873 5873 5874 5874 5874 5875 5876 5877 5877 5878 5879 5879 5880 5883 5885 5886 5886 5886 5887 5888 5889 5890 5890 5891 5893 5894 5896 5896 5896 5897 5898 5898 5898 5898 5898 5898 5898 5896 5896 5896 5897 5899 5899 5899 5901 5902 5903 5903 5903 5903 5904 5905 5905 5906 5907 5908 5908 5909 5910 5911 5911 5912 5913 5913 5913 5915
5882 5881 5880 5880 5879 5878 5877 5877 5876 5875 5874 5874 5873 5872 5872 5871 5871 5871 5871 5871 5871 5870 5870 5871 5871 5871 5872 5873 5873 5874 5875 5876 5876 5877 5879 5882 5883 5884 5885 5885 5885 5887 5887 5888 5889 5890 5893 5894 5895 5896 5896 5897 5897 5898 5898 5898 5898 5898 5898 5897 5897 5896 5897 5898 5898 5899 5901 5902 5903 5903 5903 5904 5904 5905 5906 5906 5907 5908 5909 5910 5910 5911 5912 5913 5913 5914 5914 5915
5880 5880 5879 5878 5877 5876 5876 5875 5874 5873 5872 5871 5870 5870 5869 5868 5868 5868 5868 5868 5868 5868 5868 5868 5868 5868 5869 5870 5871 5871 5872 5873 5873 5875 5878 5880 5881 5882 5882 5883 5884 5885 5886 5886 5888 5890 5893 5894 5894 5895 5895 5896 5897 5897 5898 5898 5898 5898 5897 5897 5897 5897 5896 5897 5898 5899 5900 5901 5903 5903 5904 5904 5905 5905 5906 5907 5907 5908 5909 5910 5910 5911 5912 5913 5914 5915 5915 5916
5879 5878 5877 5876 5875 5874 5873 5872 5871 5870 5869 5868 5867 5867 5866 5865 5865 5864 5864 5864 5864 5864 5864 5864 5865 5865 5866 5867 5867 5868 5870 5870 5870 5874 5877 5878 5878 5879 5880 5881 5882 5884 5884 5885 5887 5890 5892 5893 5893 5894 5894 5895 5896 5897 5898 5897 5897 5897 5897 5897 5897 5898 5897 5898 5899 5900 5900 5901 5902 5903 5904 5905 5905 5906 5906 5907 5908 5909 5909 5910 5911 5912 5912 5914 5915 5916 5916 5916
5877 5876 5875 5874 5873 5872 5870 5869 5868 5867 5866 5865 5864 5863 5862 5862 5861 5861 5860 5860 5860 5860 5861 5861 5861 5862 5862 5863 5864 5865 5866 5865 5868 5872 5874 5875 5876 5876 5877 5879 5881 5882 5883 5884 5887 5889 5890 5891 5892 5893 5893 5894 5895 5896 5897 5897 5897 5897 5897 5897 5898 5899 5900 5899 5899 5900 5900 5902 5902 5903 5904 5905 5905 5906 5907 5907 5908 5909 5909 5910 5911 5912 5913 5914 5915 5916 5917 5917
5875 5874 5873 5872 5870 5869 5868 5866 5865 5864 5863 5862 5861 5860 5859 5858 5857 5857 5856 5856 5856 5856 5857 5857 5857 5858 5858 5860 5860 5861 5861 5862 5867 5869 5871 5873 5873 5874 5875 5877 5879 5881 5882 5883 5885 5888 5889 5890 5891 5892 5892 5893 5894 5895 5896 5897 5897 5897 5897 5898 5899 5899 5900 5900 5900 5900 5900 5902 5903 5903 5904 5905 5905 5906 5907 5907 5908 5909 5910 5910 5911 5913 5914 5915 5916 5917 5917 5917
5873 5871 5870 5869 5867 5866 5865 5863 5862 5861 5859 5858 5857 5856 5855 5854 5853 5852 5851 5851 5851 5851 5852 5852 5853 5854 5855 5855 5856 5857 5857 5859 5864 5865 5867 5869 5869 5871 5873 5875 5877 5879 5880 5882 5884 5886 5888 5889 5889 5890 5892 5892 5893 5894 5895 5897 5896 5897 5897 5898 5899 5899 5898 5899 5900 5899 5900 5902 5903 5903 5904 5905 5906 5906 5906 5907 5908 5909 5910 5911 5912 5913 5914 5916 5917 5918 5918 5918
5870 5869 5867 5866 5864 5863 5861 5860 5858 5857 5855 5854 5853 5851 5850 5849 5848 5847 5847 5846 5846 5846 5846 5847 5848 5849 5851 5851 5852 5853 5852 5855 5860 5861 5863 5866 5866 5869 5871 5873 5875 5876 5878 5880 5882 5884 5886 5887 5888 5890 5891 5891 5893 5893 5894 5895 5895 5896 5898 5898 5899 5898 5898 5899 5901 5900 5899 5901 5902 5903 5904 5905 5906 5906 5906 5907 5908 5909 5910 5911 5912 5913 5914 5916 5917 5919 5919 5919
5868 5866 5864 5863 5861 5859 5857 5856 5854 5852 5851 5849 5848 5847 5845 5844 5843 5843 5842 5841 5841 5841 5841 5842 5842 5844 5846 5846 5848 5848 5847 5852 5856 5856 5860 5862 5863 5866 5869 5871 5872 5874 5876 5877 5880 5882 5884 5886 5887 5888 5890 5891 5892 5893 5893 5895 5894 5895 5897 5898 5898 5898 5898 5899 5900 5900 5900 5900 5902 5903 5904 5905 5906 5906 5907 5907 5908 5909 5910 5911 5912 5913 5915 5916 5918 5919 5920 5920
5865 5863 5861 5860 5858 5856 5854 5852 5850 5848 5847 5845 5843 5842 5840 5839 5838 5838 5837 5836 5836 5836 5836 5836 5837 5839 5840 5842 5843 5841 5843 5849 5850 5852 5856 5858 5860 5864 5866 5868 5869 5871 5873 5875 5878 5880 5882 5884 5886 5888 5889 5890 5891 5892 5893 5894 5894 5895 5897 5897 5897 5898 5898 5899 5899 5900 5900 5900 5901 5903 5904 5905 5906 5906 5907 5908 5909 5909 5910 5911 5913 5914 5915 5917 5918 5920 5920 5921
5862 5860 5858 5856 5854 5852 5850 5848 5846 5844 5842 5840 5838 5837 5836 5834 5833 5833 5832 5831 5831 5831 5831 5831 5832 5833 5834 5837 5836 5836 5842 5846 5846 5849 5852 5854 5857 5860 5863 5865 5866 5868 5870 5873 5875 5877 5879 5881 5885 5887 5888 5889 5890 5891 5892 5893 5894 5895 5896 5895 5896 5897 5897 5898 5898 5900 5901 5901 5901 5903 5904 5905 5905 5906 5907 5908 5909 5910 5910 5912 5913 5914 5915 5917 5919 5920 5921 5922
5860 5857 5855 5853 5851 5849 5847 5844 5842 5840 5838 5836 5834 5832 5831 5830 5829 5828 5827 5827 5827 5827 5827 5827 5827 5828 5829 5831 5831 5834 5839 5840 5841 5845 5848 5851 5854 5857 5860 5861 5863 5866 5868 5870 5872 5875 5877 5879 5883 5885 5886 5888 5889 5891 5892 5892 5893 5895 5895 5895 5897 5897 5896 5897 5897 5899 5901 5901 5901 5902 5904 5905 5905 5906 5907 5908 5909 5910 5911 5912 5913 5914 5915 5917 5919 5921 5922 5923
5857 5854 5852 5850 5848 5846 5843 5841 5838 5836 5834 5832 5830 5828 5827 5826 5825 5824 5823 5823 5823 5823 5823 5823 5823 5824 5825 5826 5827 5831 5834 5834 5837 5841 5844 5847 5850 5853 5856 5858 5861 5863 5865 5868 5870 5872 5875 5878 5881 5883 5885 5887 5888 5890 5891 5891 5893 5895 5895 5895 5895 5895 5895 5896 5896 5898 5900 5902 5902 5902 5903 5905 5906 5906 5907 5908 5910 5911 5911 5912 5913 5914 5915 5917 5919 5921 5922 5923
5854 5851 5849 5846 5844 5842 5840 5837 5835 5832 5830 5828 5826 5825 5823 5822 5821 5820 5819 5819 5819 5819 5819 5819 5819 5820 5821 5822 5824 5826 5828 5831 5834 5837 5840 5843 5846 5850 5853 5855 5858 5860 5863 5866 5868 5871 5873 5877 5880 5882 5884 5886 5887 5889 5890 5890 5891 5894 5895 5895 5894 5893 5894 5894 5895 5897 5899 5903 5904 5902 5903 5904 5906 5906 5907 5908 5910 5911 5912 5912 5914 5915 5916 5917 5919 5921 5922 5923
5851 5848 5846 5843 5841 5838 5836 5833 5831 5828 5826 5824 5823 5821 5820 5818 5817 5816 5815 5815 5815 5815 5815 5815 5816 5817 5817 5818 5820 5822 5824 5827 5830 5833 5837 5839 5843 5846 5849 5852 5855 5857 5860 5863 5866 5869 5872 5875 5879 5881 5883 5885 5886 5887 5888 5889 5890 5893 5894 5895 5894 5893 5893 5893 5894 5896 5898 5901 5902 5902 5903 5904 5905 5906 5907 5908 5910 5911 5912 5913 5914 5915 5916 5917 5919 5921 5922 5923
5848 5845 5842 5840 5838 5835 5832 5830 5827 5825 5823 5821 5819 5818 5816 5815 5813 5812 5811 5811 5811 5811 5812 5812 5813 5814 5814 5815 5817 5818 5820 5823 5826 5830 5833 5836 5839 5843 5846 5849 5851 5855 5858 5861 5865 5867 5870 5874 5878 5880 5881 5883 5884 5885 5887 5887 5889 5892 5893 5894 5894 5893 5892 5892 5893 5894 5897 5899 5900 5901 5903 5904 5905 5906 5907 5908 5910 5911 5912 5913 5914 5915 5916 5917 5919 5920 5922 5923
5845 5842 5839 5837 5834 5832 5829 5826 5824 5822 5820 5818 5816 5814 5813 5811 5810 5809 5808 5807 5807 5807 5808 5808 5809 5810 5811 5812 5813 5814 5816 5820 5824 5827 5829 5832 5836 5840 5843 5846 5849 5853 5856 5859 5861 5864 5868 5872 5876 5879 5880 5882 5883 5884 5885 5886 5888 5890 5891 5892 5893 5892 5892 5892 5893 5894 5896 5898 5899 5901 5902 5903 5904 5906 5907 5908 5909 5911 5912 5913 5914 5915 5916 5918 5919 5920 5922 5923
5842 5839 5837 5834 5831 5829 5826 5823 5821 5819 5817 5815 5813 5811 5810 5808 5807 5806 5805 5804 5804 5804 5804 5805 5806 5807 5807 5809 5810 5811 5813 5817 5820 5823 5826 5829 5833 5837 5839 5842 5846 5850 5853 5856 5858 5861 5865 5869 5873 5876 5879 5881 5882 5884 5884 5886 5887 5888 5889 5890 5891 5892 5892 5892 5893 5894 5895 5897 5899 5900 5900 5902 5903 5905 5906 5908 5909 5911 5912 5913 5914 5915 5916 5917 5919 5920 5921 5923
5839 5837 5834 5831 5828 5826 5823 5820 5818 5816 5814 5812 5810 5808 5807 5805 5804 5803 5802 5802 5801 5801 5801 5802 5803 5804 5805 5807 5807 5809 5811 5813 5816 5819 5823 5826 5830 5833 5836 5840 5844 5847 5850 5853 5855 5858 5863 5866 5870 5873 5877 5879 5881 5882 5883 5885 5886 5887 5889 5889 5890 5892 5891 5891 5892 5893 5895 5896 5898 5898 5899 5901 5903 5904 5905 5907 5909 5910 5911 5913 5914 5915 5916 5917 5919 5920 5921 5923
5836 5834 5831 5828 5826 5823 5820 5818 5816 5814 5811 5809 5808 5806 5804 5802 5801 5800 5799 5798 5798 5798 5799 5799 5800 5801 5802 5804 5805 5806 5808 5810 5813 5816 5819 5823 5827 5830 5834 5837 5841 5844 5847 5850 5852 5856 5860 5863 5867 5873 5876 5878 5880 5880 5881 5884 5886 5887 5888 5887 5888 5891 5890 5890 5891 5892 5894 5895 5896 5897 5898 5900 5901 5902 5904 5906 5908 5909 5911 5913 5913 5914 5916 5917 5919 5920 5921 5922
5834 5831 5828 5825 5823 5820 5818 5816 5813 5811 5809 5807 5805 5803 5801 5799 5798 5796 5795 5795 5795 5796 5796 5797 5798 5799 5800 5801 5802 5804 5805 5807 5810 5813 5817 5821 5824 5828 5832 5835 5838 5842 5845 5848 5850 5854 5858 5861 5867 5872 5874 5876 5878 5878 5880 5883 5885 5885 5885 5885 5887 5888 5888 5888 5889 5890 5892 5894 5895 5895 5897 5899 5900 5902 5904 5906 5907 5909 5911 5912 5913 5914 5915 5917 5918 5919 5921 5922
5831 5829 5826 5823 5821 5818 5816 5814 5811 5809 5807 5805 5803 5801 5799 5797 5795 5794 5793 5792 5793 5793 5794 5794 5795 5796 5797 5799 5800 5802 5803 5805 5808 5811 5815 5819 5822 5826 5829 5833 5836 5840 5843 5845 5849 5853 5856 5860 5865 5869 5871 5872 5872 5874 5878 5881 5884 5885 5883 5885 5887 5886 5887 5887 5888 5890 5891 5892 5893 5894 5895 5897 5900 5903 5904 5906 5907 5908 5910 5911 5913 5914 5915 5916 5918 5919 5920 5922
5829 5826 5824 5821 5819 5816 5814 5812 5810 5807 5805 5803 5801 5799 5797 5795 5793 5791 5791 5791 5791 5791 5792 5793 5793 5794 5796 5797 5798 5800 5802 5804 5806 5809 5812 5816 5820 5823 5827 5831 5834 5837 5840 5843 5848 5851 5855 5860 5864 5866 5866 5867 5870 5874 5878 5880 5883 5883 5881 5883 5885 5885 5886 5887 5888 5889 5890 5890 5890 5891 5894 5896 5899 5902 5904 5906 5907 5908 5909 5911 5912 5913 5914 5916 5917 5919 5920 5922
5827 5824 5822 5819 5817 5815 5813 5810 5808 5806 5804 5802 5799 5797 5795 5793 5791 5790 5790 5789 5789 5790 5791 5791 5792 5793 5794 5796 5797 5799 5800 5802 5804 5807 5810 5814 5817 5821 5826 5829 5832 5835 5837 5841 5846 5850 5856 5860 5861 5863 5864 5866 5870 5873 5876 5878 5880 5881 5880 5881 5883 5883 5884 5886 5887 5888 5889 5890 5888 5889 5892 5895 5898 5901 5903 5905 5906 5908 5909 5910 5911 5912 5914 5915 5917 5919 5920 5922
5825 5822 5820 5817 5815 5813 5811 5809 5807 5805 5803 5800 5798 5796 5794 5792 5790 5789 5789 5788 5788 5789 5790 5790 5791 5792 5793 5795 5796 5797 5800 5801 5803 5805 5808 5811 5815 5820 5824 5827 5830 5833 5836 5841 5845 5850 5855 5856 5857 5860 5862 5865 5868 5871 5874 5876 5878 5880 5879 5880 5881 5883 5884 5886 5887 5887 5888 5889 5889 5890 5893 5895 5897 5899 5902 5903 5905 5906 5908 5909 5911 5912 5914 5915 5917 5918 5920 5921
5823 5821 5818 5816 5814 5812 5810 5808 5806 5804 5802 5800 5798 5795 5793 5791 5790 5789 5789 5789 5789 5789 5790 5790 5791 5792 5793 5794 5795 5797 5800 5800 5802 5805 5807 5810 5814 5818 5821 5825 5829 5831 5834 5840 5844 5849 5851 5850 5853 5857 5860 5863 5866 5869 5872 5874 5877 5879 5879 5879 5880 5883 5885 5885 5886 5887 5887 5889 5890 5891 5893 5895 5896 5898 5900 5903 5904 5905 5907 5909 5911 5912 5913 5915 5916 5918 5920 5921
5821 5819 5817 5815 5813 5811 5809 5807 5805 5803 5801 5799 5797 5795 5793 5791 5790 5790 5790 5790 5790 5790 5791 5791 5791 5792 5792 5794 5795 5797 5799 5799 5802 5804 5807 5810 5813 5816 5820 5824 5827 5830 5834 5839 5843 5846 5846 5846 5851 5855 5858 5862 5865 5868 5870 5873 5876 5877 5876 5878 5880 5882 5884 5885 5885 5886 5887 5888 5889 5890 5891 5892 5894 5896 5898 5901 5903 5905 5906 5908 5910 5911 5913 5915 5916 5918 5920 5921
5820 5817 5815 5813 5812 5810 5808 5806 5804 5802 5801 5799 5797 5795 5794 5792 5792 5791 5791 5792 5792 5791 5791 5791 5791 5792 5792 5794 5795 5797 5799 5800 5802 5804 5806 5809 5812 5816 5820 5823 5826 5829 5833 5837 5842 5845 5844 5844 5848 5852 5857 5860 5863 5867 5869 5871 5874 5873 5873 5876 5879 5881 5883 5884 5884 5885 5886 5887 5887 5888 5889 5890 5892 5895 5896 5898 5901 5903 5905 5907 5909 5910 5912 5914 5915 5917 5919 5921
5818 5816 5814 5812 5810 5809 5807 5805 5804 5802 5801 5799 5798 5796 5795 5794 5793 5793 5793 5793 5793 5792 5792 5792 5792 5792 5793 5794 5796 5797 5799 5800 5801 5803 5806 5809 5812 5815 5818 5821 5825 5828 5831 5836 5841 5842 5841 5842 5846 5850 5856 5858 5861 5864 5865 5869 5871 5869 5871 5876 5878 5880 5881 5883 5884 5884 5885 5886 5887 5888 5888 5889 5891 5892 5894 5896 5900 5902 5904 5906 5908 5909 5911 5913 5915 5916 5918 5920
5817 5815 5813 5811 5810 5808 5806 5805 5803 5802 5801 5799 5798 5797 5796 5795 5794 5794 5794 5795 5794 5793 5793 5793 5793 5793 5794 5795 5796 5798 5799 5800 5801 5804 5806 5809 5812 5815 5817 5821 5825 5827 5830 5835 5838 5838 5838 5841 5845 5849 5853 5856 5860 5863 5863 5865 5866 5866 5872 5876 5878 5878 5879 5882 5883 5883 5885 5885 5886 5887 5887 5888 5888 5889 5892 5896 5899 5902 5903 5905 5906 5908 5910 5912 5914 5916 5917 5919
5815 5813 5812 5810 5809 5807 5805 5804 5803 5802 5801 5800 5799 5798 5797 5796 5795 5796 5797 5796 5795 5794 5793 5793 5793 5794 5795 5796 5797 5798 5800 5801 5802 5804 5806 5809 5812 5815 5818 5821 5824 5826 5830 5834 5835 5834 5835 5839 5843 5847 5850 5853 5856 5859 5860 5862 5863 5868 5872 5875 5877 5877 5877 5880 5882 5883 5884 5885 5886 5887 5887 5887 5886 5888 5892 5896 5898 5900 5901 5903 5906 5907 5909 5911 5913 5915 5916 5918
5814 5812 5811 5809 5808 5806 5805 5804 5803 5802 5802 5800 5799 5799 5798 5797 5797 5798 5798 5796 5795 5795 5795 5794 5794 5795 5796 5797 5797 5798 5800 5802 5803 5805 5807 5810 5812 5814 5818 5821 5824 5827 5831 5833 5834 5834 5835 5838 5842 5846 5849 5850 5852 5855 5858 5861 5864 5868 5871 5873 5876 5877 5877 5879 5881 5882 5883 5883 5885 5887 5887 5887 5888 5890 5892 5895 5897 5899 5900 5902 5905 5906 5908 5910 5912 5913 5915 5917
5813 5811 5810 5809 5807 5805 5804 5803 5803 5802 5802 5801 5800 5799 5798 5798 5799 5799 5798 5797 5796 5796 5796 5795 5795 5795 5796 5798 5798 5799 5801 5802 5804 5806 5808 5810 5812 5815 5818 5821 5823 5827 5831 5833 5834 5836 5837 5839 5842 5845 5847 5848 5852 5856 5860 5863 5865 5867 5870 5872 5875 5876 5877 5878 5880 5882 5882 5883 5884 5886 5887 5887 5888 5890 5891 5893 5896 5897 5898 5899 5901 5904 5906 5908 5910 5912 5914 5916
5812 5810 5809 5808 5806 5805 5803 5803 5802 5802 5802 5801 5799 5799 5799 5799 5799 5798 5798 5797 5796 5795 5795 5795 5796 5796 5797 5799 5799 5800 5803 5803 5804 5806 5808 5810 5813 5816 5818 5819 5821 5826 5831 5833 5835 5837 5838 5840 5842 5844 5846 5848 5852 5856 5858 5861 5864 5866 5868 5871 5873 5875 5876 5878 5879 5880 5881 5882 5883 5884 5885 5886 5887 5888 5890 5891 5893 5894 5895 5895 5899 5903 5904 5907 5909 5911 5913 5915
5811 5809 5808 5807 5805 5804 5803 5802 5802 5802 5801 5800 5799 5799 5799 5800 5799 5798 5798 5797 5796 5797 5796 5795 5797 5798 5798 5799 5800 5801 5802 5803 5803 5806 5808 5810 5813 5815 5816 5817 5820 5824 5829 5833 5836 5837 5839 5842 5842 5842 5845 5848 5851 5854 5856 5858 5862 5864 5866 5869 5871 5874 5876 5877 5877 5877 5879 5881 5882 5883 5884 5884 5885 5887 5888 5889 5890 5891 5890 5891 5897 5902 5903 5905 5908 5910 5912 5913
5810 5808 5807 5806 5804 5803 5802 5802 5801 5801 5801 5800 5799 5799 5799 5799 5798 5797 5798 5797 5797 5798 5797 5796 5798 5800 5800 5800 5800 5802 5802 5802 5804 5806 5808 5810 5812 5813 5815 5817 5819 5823 5827 5830 5834 5836 5839 5843 5840 5838 5842 5845 5848 5852 5854 5857 5860 5862 5865 5867 5870 5873 5875 5875 5876 5877 5878 5880 5882 5883 5883 5884 5885 5886 5887 5889 5889 5889 5888 5889 5895 5900 5902 5905 5907 5909 5911 5912
5808 5807 5806 5805 5804 5802 5801 5801 5801 5801 5801 5800 5800 5800 5799 5799 5798 5797 5797 5797 5797 5797 5797 5798 5799 5801 5801 5800 5801 5803 5803 5802 5804 5806 5808 5810 5811 5812 5814 5816 5816 5819 5823 5825 5829 5833 5837 5841 5838 5836 5841 5842 5845 5849 5852 5855 5859 5861 5865 5867 5869 5872 5873 5874 5875 5876 5879 5880 5881 5882 5883 5884 5885 5885 5886 5888 5889 5889 5889 5891 5895 5899 5901 5903 5905 5907 5909 5910
5807 5806 5805 5804 5803 5802 5801 5800 5800 5800 5800 5800 5800 5799 5799 5799 5798 5797 5797 5797 5797 5796 5797 5800 5800 5800 5802 5801 5802 5803 5803 5803 5804 5805 5807 5809 5810 5810 5812 5814 5813 5816 5821 5823 5826 5829 5834 5839 5838 5836 5840 5841 5844 5848 5851 5854 5858 5860 5863 5865 5867 5870 5872 5874 5876 5877 5879 5879 5879 5881 5883 5883 5883 5884 5885 5886 5887 5889 5891 5893 5895 5897 5899 5901 5903 5905 5907 5908
5806 5805 5804 5803 5802 5801 5800 5800 5800 5800 5799 5799 5799 5799 5798 5798 5797 5796 5796 5796 5796 5796 5797 5800 5800 5800 5801 5801 5803 5803 5802 5802 5804 5804 5806 5808 5809 5809 5810 5812 5812 5816 5820 5822 5823 5827 5832 5838 5837 5835 5837 5839 5842 5846 5850 5854 5857 5858 5859 5861 5864 5867 5869 5872 5874 5876 5878 5878 5878 5880 5882 5881 5882 5883 5884 5884 5885 5887 5889 5892 5894 5895 5897 5898 5900 5902 5904 5906
5804 5804 5803 5802 5801 5800 5799 5799 5799 5799 5799 5798 5798 5798 5798 5798 5796 5796 5795 5795 5795 5796 5796 5797 5798 5799 5801 5801 5803 5803 5802 5803 5804 5805 5806 5807 5809 5808 5808 5809 5812 5815 5818 5820 5822 5826 5830 5835 5837 5836 5835 5838 5841 5845 5849 5853 5856 5857 5858 5861 5864 5866 5868 5870 5872 5874 5876 5877 5877 5879 5880 5880 5881 5881 5882 5883 5885 5886 5888 5891 5892 5894 5895 5896 5897 5899 5901 5904
5803 5802 5802 5801 5800 5799 5799 5799 5799 5799 5798 5798 5798 5797 5797 5797 5796 5795 5795 5795 5795 5795 5795 5795 5796 5798 5800 5801 5802 5803 5804 5805 5805 5805 5806 5808 5809 5807 5806 5808 5811 5814 5817 5821 5823 5825 5828 5833 5836 5838 5837 5838 5840 5843 5847 5850 5853 5855 5857 5860 5863 5866 5867 5869 5870 5873 5875 5876 5877 5877 5878 5879 5879 5879 5880 5882 5884 5886 5888 5890 5891 5893 5893 5894 5895 5897 5899 5902
5802 5801 5801 5800 5799 5798 5798 5798 5798 5799 5798 5797 5796 5797 5796 5795 5795 5795 5795 5795 5795 5795 5795 5795 5796 5797 5798 5799 5801 5802 5804 5805 5806 5806 5807 5807 5806 5805 5805 5807 5810 5813 5817 5821 5824 5824 5826 5830 5833 5837 5839 5839 5839 5841 5845 5848 5851 5854 5856 5859 5862 5864 5865 5867 5869 5872 5874 5875 5876 5876 5877 5879 5878 5878 5879 5880 5882 5884 5885 5888 5890 5891 5892 5893 5894 5895 5897 5899
5801 5800 5799 5799 5798 5798 5797 5796 5797 5798 5797 5796 5796 5796 5795 5795 5794 5794 5794 5794 5794 5794 5794 5794 5795 5796 5797 5798 5800 5801 5802 5803 5804 5805 5805 5805 5804 5804 5805 5807 5809 5812 5815 5819 5820 5821 5825 5828 5831 5835 5838 5839 5839 5841 5844 5847 5849 5851 5853 5856 5860 5862 5864 5867 5868 5870 5872 5873 5875 5875 5876 5877 5877 5877 5877 5879 5880 5882 5883 5884 5886 5889 5891 5893 5894 5894 5895 5896
5800 5798 5798 5797 5797 5797 5796 5795 5795 5796 5795 5795 5796 5795 5795 5795 5794 5793 5793 5793 5793 5793 5793 5793 5794 5795 5796 5797 5798 5799 5800 5801 5802 5803 5804 5803 5803 5804 5805 5806 5808 5810 5813 5815 5816 5819 5823 5826 5829 5834 5838 5840 5841 5841 5841 5843 5845 5848 5852 5855 5858 5861 5864 5867 5867 5867 5869 5871 5872 5873 5874 5875 5876 5877 5877 5877 5878 5879 5881 5882 5885 5887 5890 5891 5892 5893 5894 5895
5798 5797 5796 5796 5795 5795 5795 5794 5794 5794 5793 5794 5794 5794 5794 5794 5793 5793 5793 5792 5792 5793 5793 5793 5793 5794 5795 5796 5797 5797 5798 5800 5801 5802 5802 5802 5803 5804 5805 5806 5807 5808 5811 5813 5815 5818 5821 5823 5826 5831 5835 5838 5840 5840 5840 5842 5844 5848 5851 5854 5856 5859 5862 5866 5866 5865 5867 5869 5870 5872 5872 5873 5875 5876 5876 5877 5878 5879 5880 5881 5884 5886 5887 5888 5889 5891 5893 5894
5796 5796 5795 5794 5794 5794 5793 5793 5793 5793 5793 5793 5793 5794 5794 5793 5793 5792 5792 5792 5792 5792 5792 5793 5793 5793 5794 5795 5796 5796 5797 5798 5800 5801 5801 5802 5802 5803 5804 5806 5806 5808 5810 5811 5813 5816 5818 5821 5824 5827 5830 5833 5835 5836 5839 5842 5844 5847 5850 5852 5855 5858 5860 5863 5864 5864 5865 5867 5870 5870 5870 5871 5873 5875 5875 5876 5877 5879 5880 5880 5882 5884 5885 5886 5888 5890 5892 5893
5795 5794 5794 5793 5793 5792 5792 5791 5792 5792 5792 5792 5792 5793 5793 5793 5792 5792 5792 5791 5791 5791 5792 5792 5792 5793 5794 5795 5795 5796 5796 5797 5798 5799 5800 5801 5801 5802 5803 5805 5806 5807 5808 5810 5813 5815 5817 5820 5823 5825 5828 5830 5832 5834 5836 5839 5844 5847 5849 5852 5853 5855 5855 5857 5861 5862 5863 5865 5867 5867 5867 5870 5872 5873 5874 5874 5875 5877 5879 5879 5880 5882 5883 5885 5886 5888 5890 5891
5793 5792 5792 5792 5791 5791 5790 5790 5791 5791 5791 5791 5791 5792 5792 5792 5792 5792 5791 5791 5791 5791 5791 5792 5792 5792 5793 5794 5794 5794 5795 5796 5797 5797 5798 5799 5800 5802 5803 5804 5805 5806 5808 5810 5811 5813 5816 5819 5821 5824 5827 5829 5831 5833 5834 5838 5843 5847 5850 5851 5851 5853 5854 5856 5859 5860 5860 5862 5864 5864 5866 5868 5869 5870 5871 5872 5873 5875 5877 5878 5879 5881 5882 5883 5884 5886 5888 5890
5791 5790 5790 5789 5790 5789 5789 5789 5789 5789 5790 5790 5790 5791 5791 5791 5791 5791 5791 5791 5791 5791 5791 5791 5791 5791 5792 5792 5793 5793 5793 5794 5795 5796 5797 5798 5799 5800 5801 5802 5803 5804 5807 5808 5809 5811 5814 5817 5819 5822 5825 5827 5829 5831 5834 5837 5841 5844 5847 5847 5848 5851 5854 5856 5858 5859 5860 5862 5862 5862 5864 5866 5866 5868 5869 5870 5872 5873 5875 5876 5878 5879 5880 5881 5883 5884 5886 5888
5789 5788 5788 5788 5788 5788 5787 5788 5788 5789 5789 5789 5790 5790 5790 5790 5790 5790 5790 5791 5791 5790 5790 5790 5790 5790 5790 5791 5792 5792 5792 5793 5794 5795 5796 5797 5798 5799 5799 5800 5801 5803 5804 5806 5807 5809 5813 5815 5817 5820 5823 5827 5828 5830 5833 5836 5838 5840 5840 5841 5843 5847 5849 5852 5854 5856 5858 5859 5858 5860 5863 5864 5864 5866 5868 5867 5868 5871 5873 5875 5876 5877 5879 5880 5882 5883 5884 5885
5787 5786 5786 5786 5786 5786 5786 5786 5787 5787 5787 5788 5788 5789 5789 5789 5789 5789 5790 5790 5790 5790 5790 5790 5789 5789 5790 5790 5790 5791 5791 5792 5793 5794 5795 5796 5796 5797 5798 5799 5800 5802 5803 5804 5806 5809 5811 5813 5816 5819 5823 5825 5826 5829 5832 5834 5835 5836 5835 5837 5841 5843 5845 5847 5850 5851 5853 5855 5856 5859 5860 5860 5862 5864 5865 5865 5866 5868 5871 5873 5874 5876 5877 5879 5880 5881 5882 5883
5785 5785 5785 5785 5784 5784 5785 5785 5786 5786 5786 5786 5786 5787 5788 5788 5788 5789 5789 5789 5789 5789 5789 5789 5789 5789 5789 5789 5789 5790 5790 5791 5792 5793 5794 5794 5795 5796 5797 5798 5799 5800 5801 5803 5805 5807 5809 5812 5815 5818 5821 5823 5825 5828 5831 5833 5833 5833 5832 5835 5838 5839 5842 5844 5846 5847 5849 5852 5855 5856 5856 5857 5859 5861 5863 5864 5865 5867 5869 5871 5872 5874 5875 5877 5878 5879 5880 5882